When you browse on this site, cookies collect data to enhance your experience and personalize the content and advertising you see.
Visit our Privacy Policy to learn more. By continuing to use the site, you agree to this use of cookies and data.
  • In Österreich
  • Länderverzeichnis
  • Für 7 Tage
  • Wassertemperatur
  • Wetterkarte
  • News
  • Widgets
  • user-avatar
    Anmelden

    Stündliche Wetter Djelfa

    Heute, 6 Juni, Samstag

    Zeit Temperatur Niederschläge Wind Luftdruck Luftfeuchtigkeit
    00:00 +19°C° 0 mm 3 m/S 665 mmHg 59%
    01:00 +18°C° 0 mm 2 m/S 664 mmHg 60%
    02:00 +18°C° 0 mm 2 m/S 664 mmHg 61%
    03:00 +17°C° 0 mm 2 m/S 664 mmHg 61%
    04:00 +18°C° 0 mm 3 m/S 664 mmHg 56%
    05:00 +19°C° 0 mm 3 m/S 665 mmHg 50%
    06:00 +19°C° 0 mm 4 m/S 665 mmHg 45%
    07:00 +21°C° 0 mm 4 m/S 666 mmHg 37%
    08:00 +22°C° 0 mm 4 m/S 666 mmHg 30%
    09:00 +25°C° 0 mm 4 m/S 666 mmHg 23%
    10:00 +27°C° 0 mm 4 m/S 666 mmHg 20%
    11:00 +28°C° 0 mm 5 m/S 667 mmHg 17%
    12:00 +30°C° 0 mm 5 m/S 667 mmHg 14%
    13:00 +30°C° 0 mm 6 m/S 666 mmHg 15%
    14:00 +32°C° 0 mm 6 m/S 666 mmHg 16%
    15:00 +32°C° 0 mm 6 m/S 666 mmHg 16%
    16:00 +32°C° 0 mm 6 m/S 665 mmHg 18%
    17:00 +30°C° 0 mm 6 m/S 665 mmHg 20%
    18:00 +30°C° 0 mm 6 m/S 664 mmHg 22%
    19:00 +29°C° 0 mm 5 m/S 664 mmHg 25%
    20:00 +28°C° 0 mm 3 m/S 664 mmHg 28%
    21:00 +27°C° 0 mm 2 m/S 664 mmHg 31%
    22:00 +27°C° 0.1 mm 3 m/S 664 mmHg 30%
    23:00 +26°C° 0.1 mm 4 m/S 663 mmHg 30%

    Morgen, 7 Juni, Sonntag

    Zeit Temperatur Niederschläge Wind Luftdruck Luftfeuchtigkeit
    00:00 +26°C° 0.1 mm 5 m/S 663 mmHg 30%
    01:00 +25°C° 0 mm 5 m/S 663 mmHg 33%
    02:00 +23°C° 0 mm 4 m/S 662 mmHg 35%
    03:00 +22°C° 0 mm 4 m/S 662 mmHg 38%
    04:00 +21°C° 0 mm 5 m/S 662 mmHg 43%
    05:00 +20°C° 0 mm 6 m/S 662 mmHg 47%
    06:00 +18°C° 0 mm 8 m/S 662 mmHg 52%
    07:00 +20°C° 0 mm 8 m/S 662 mmHg 48%
    08:00 +21°C° 0 mm 8 m/S 663 mmHg 45%
    09:00 +22°C° 0 mm 8 m/S 663 mmHg 42%
    10:00 +24°C° 0 mm 7 m/S 663 mmHg 38%
    11:00 +26°C° 0 mm 7 m/S 663 mmHg 35%
    12:00 +27°C° 0 mm 6 m/S 663 mmHg 32%
    13:00 +27°C° 0 mm 6 m/S 663 mmHg 32%
    14:00 +28°C° 0 mm 6 m/S 663 mmHg 31%
    15:00 +28°C° 0 mm 6 m/S 663 mmHg 31%
    16:00 +27°C° 0 mm 6 m/S 663 mmHg 32%
    17:00 +27°C° 0 mm 6 m/S 663 mmHg 32%
    18:00 +26°C° 0 mm 6 m/S 663 mmHg 33%
    19:00 +24°C° 0 mm 6 m/S 663 mmHg 36%
    20:00 +23°C° 0 mm 6 m/S 663 mmHg 38%
    21:00 +22°C° 0 mm 5 m/S 663 mmHg 40%
    22:00 +21°C° 0 mm 6 m/S 663 mmHg 45%
    23:00 +20°C° 0 mm 6 m/S 663 mmHg 50%

    übermorgen, 8 Juni, Montag

    Zeit Temperatur Niederschläge Wind Luftdruck Luftfeuchtigkeit
    00:00 +19°C° 0 mm 6 m/S 662 mmHg 55%
    01:00 +19°C° 0 mm 6 m/S 662 mmHg 57%
    02:00 +17°C° 0 mm 5 m/S 662 mmHg 58%
    03:00 +17°C° 0 mm 5 m/S 662 mmHg 60%
    04:00 +16°C° 0 mm 5 m/S 662 mmHg 60%
    05:00 +16°C° 0 mm 6 m/S 662 mmHg 60%
    06:00 +16°C° 0 mm 6 m/S 662 mmHg 61%
    07:00 +17°C° 0 mm 6 m/S 663 mmHg 55%
    08:00 +20°C° 0 mm 6 m/S 663 mmHg 50%
    09:00 +21°C° 0 mm 6 m/S 663 mmHg 44%
    10:00 +22°C° 0 mm 6 m/S 663 mmHg 40%
    11:00 +23°C° 0 mm 5 m/S 663 mmHg 36%
    12:00 +25°C° 0 mm 5 m/S 663 mmHg 31%
    13:00 +25°C° 0 mm 5 m/S 663 mmHg 31%
    14:00 +25°C° 0 mm 5 m/S 663 mmHg 32%
    15:00 +25°C° 0 mm 5 m/S 662 mmHg 32%
    16:00 +24°C° 0 mm 6 m/S 662 mmHg 32%
    17:00 +24°C° 0 mm 6 m/S 662 mmHg 33%
    18:00 +23°C° 0 mm 7 m/S 662 mmHg 33%
    19:00 +22°C° 0 mm 8 m/S 663 mmHg 40%
    20:00 +20°C° 0 mm 8 m/S 663 mmHg 47%
    21:00 +18°C° 0 mm 9 m/S 663 mmHg 54%
    22:00 +17°C° 0 mm 9 m/S 663 mmHg 57%
    23:00 +16°C° 0 mm 8 m/S 663 mmHg 61%

    9 Juni, Dienstag

    Zeit Temperatur Niederschläge Wind Luftdruck Luftfeuchtigkeit
    00:00 +15°C° 0 mm 8 m/S 663 mmHg 65%
    01:00 +15°C° 0 mm 7 m/S 662 mmHg 63%
    02:00 +15°C° 0 mm 7 m/S 662 mmHg 62%
    03:00 +14°C° 0 mm 6 m/S 662 mmHg 60%
    04:00 +14°C° 0 mm 7 m/S 662 mmHg 60%
    05:00 +14°C° 0 mm 7 m/S 662 mmHg 59%
    06:00 +14°C° 0 mm 7 m/S 662 mmHg 59%
    07:00 +16°C° 0 mm 7 m/S 663 mmHg 52%
    08:00 +17°C° 0 mm 6 m/S 663 mmHg 46%
    09:00 +19°C° 0 mm 6 m/S 664 mmHg 39%
    10:00 +21°C° 0.1 mm 5 m/S 664 mmHg 35%
    11:00 +22°C° 0.1 mm 5 m/S 664 mmHg 31%
    12:00 +23°C° 0.1 mm 4 m/S 664 mmHg 27%
    13:00 +25°C° 0 mm 5 m/S 664 mmHg 27%
    14:00 +25°C° 0 mm 5 m/S 664 mmHg 26%
    15:00 +26°C° 0 mm 5 m/S 664 mmHg 26%
    16:00 +26°C° 0 mm 5 m/S 664 mmHg 26%
    17:00 +25°C° 0 mm 4 m/S 664 mmHg 26%
    18:00 +25°C° 0 mm 4 m/S 664 mmHg 26%
    19:00 +23°C° 0.2 mm 5 m/S 664 mmHg 30%
    20:00 +22°C° 0.2 mm 6 m/S 665 mmHg 34%
    21:00 +21°C° 0.2 mm 6 m/S 665 mmHg 38%
    22:00 +20°C° 0.3 mm 6 m/S 665 mmHg 45%
    23:00 +19°C° 0.3 mm 5 m/S 664 mmHg 51%

    10 Juni, Mittwoch

    Zeit Temperatur Niederschläge Wind Luftdruck Luftfeuchtigkeit
    00:00 +17°C° 0.3 mm 5 m/S 664 mmHg 58%
    01:00 +17°C° 0.2 mm 4 m/S 664 mmHg 59%
    02:00 +17°C° 0.2 mm 3 m/S 663 mmHg 59%
    03:00 +16°C° 0.2 mm 3 m/S 663 mmHg 59%
    04:00 +16°C° 0.2 mm 2 m/S 664 mmHg 59%
    05:00 +17°C° 0.2 mm 2 m/S 664 mmHg 59%
    06:00 +18°C° 0.2 mm 1 m/S 664 mmHg 58%
    07:00 +18°C° 0.2 mm 2 m/S 665 mmHg 54%
    08:00 +19°C° 0.2 mm 2 m/S 665 mmHg 50%
    09:00 +20°C° 0.2 mm 2 m/S 665 mmHg 46%
    10:00 +21°C° 0.2 mm 2 m/S 665 mmHg 44%
    11:00 +23°C° 0.2 mm 2 m/S 665 mmHg 43%
    12:00 +23°C° 0.2 mm 2 m/S 665 mmHg 41%
    13:00 +23°C° 0.1 mm 2 m/S 665 mmHg 40%
    14:00 +24°C° 0.1 mm 3 m/S 665 mmHg 39%
    15:00 +23°C° 0.1 mm 4 m/S 665 mmHg 37%
    16:00 +22°C° 0.3 mm 4 m/S 664 mmHg 42%
    17:00 +21°C° 0.3 mm 4 m/S 664 mmHg 47%
    18:00 +20°C° 0.3 mm 5 m/S 664 mmHg 52%
    19:00 +19°C° 0.9 mm 4 m/S 664 mmHg 56%
    20:00 +19°C° 0.9 mm 3 m/S 665 mmHg 60%
    21:00 +18°C° 0.9 mm 2 m/S 665 mmHg 64%
    22:00 +18°C° 0.6 mm 2 m/S 665 mmHg 66%
    23:00 +17°C° 0.6 mm 2 m/S 665 mmHg 67%

    11 Juni, Donnerstag

    Zeit Temperatur Niederschläge Wind Luftdruck Luftfeuchtigkeit
    00:00 +17°C° 0.6 mm 2 m/S 665 mmHg 69%
    01:00 +18°C° 0.2 mm 1 m/S 664 mmHg 70%
    02:00 +18°C° 0.2 mm 1 m/S 664 mmHg 72%
    03:00 +15°C° 0.2 mm 0 m/S 664 mmHg 73%
    04:00 +16°C° 0 mm 0 m/S 664 mmHg 71%
    05:00 +18°C° 0 mm 1 m/S 665 mmHg 69%
    06:00 +18°C° 0 mm 1 m/S 665 mmHg 67%
    07:00 +20°C° 0 mm 1 m/S 665 mmHg 63%
    08:00 +20°C° 0 mm 2 m/S 665 mmHg 59%
    09:00 +21°C° 0 mm 2 m/S 665 mmHg 56%
    10:00 +22°C° 0 mm 3 m/S 665 mmHg 50%
    11:00 +24°C° 0 mm 3 m/S 665 mmHg 44%
    12:00 +25°C° 0 mm 3 m/S 665 mmHg 39%
    13:00 +26°C° 0.1 mm 3 m/S 665 mmHg 37%
    14:00 +26°C° 0.1 mm 4 m/S 664 mmHg 36%
    15:00 +26°C° 0.1 mm 4 m/S 664 mmHg 35%
    16:00 +25°C° 0.3 mm 4 m/S 664 mmHg 35%
    17:00 +25°C° 0.3 mm 4 m/S 664 mmHg 36%
    18:00 +25°C° 0.3 mm 4 m/S 664 mmHg 37%
    19:00 +24°C° 0.1 mm 3 m/S 664 mmHg 39%
    20:00 +23°C° 0.1 mm 2 m/S 664 mmHg 42%
    21:00 +21°C° 0.1 mm 2 m/S 664 mmHg 45%
    22:00 +21°C° 0.2 mm 1 m/S 664 mmHg 46%
    23:00 +21°C° 0.2 mm 1 m/S 664 mmHg 48%
    Mehr zeigen